Flight Track Log - Related Links

Times and Time Zones

All times are in EDT time to prevent confusion due to time zone crossing. See the GJS3657 flight status page for this flight to view local times or setup timezone preferences in your user account.

Time Position Orientation Groundspeed Altitude Reporting Facility
EDT Latitude Longitude Course Direction KTS MPH feet Rate Location/Type
06:58AM 42.7236 -73.8081 230° Southwest 154 177 1,100  Level Boston Center
06:59AM 42.7067 -73.8358 230° Southwest 181 208 2,100 1,806 Climbing Boston Center
07:00AM 42.7497 -73.8850 320° Northwest 221 254 4,200 1,929 Climbing Boston Center
07:01AM 42.7908 -73.9283 322° Northwest 246 283 5,700 2,216 Climbing Boston Center
07:02AM 42.8483 -73.9892 322° Northwest 257 296 8,300 2,500 Climbing Boston Center
07:03AM 42.9119 -74.0617 320° Northwest 273 314 10,700 1,900 Climbing Boston Center
07:04AM 42.9714 -74.1314 319° Northwest 303 349 12,100 1,750 Climbing Boston Center
07:05AM 43.0069 -74.2600 291° West 328 377 14,200 1,950 Climbing Boston Center
07:06AM 43.0175 -74.3769 277° West 338 389 16,000 1,850 Climbing Boston Center
07:07AM 43.0317 -74.5250 278° West 357 411 17,900 1,800 Climbing Boston Center
07:08AM 43.0414 -74.6672 275° West 363 418 19,600 1,600 Climbing Boston Center
07:09AM 43.0553 -74.8072 278° West 374 430 21,100 1,150 Climbing Boston Center
07:10AM 43.0650 -74.9325 276° West 374 430 21,900 900 Climbing Boston Center
07:11AM 43.0764 -75.0808 276° West 380 437 22,900 1,050 Climbing Boston Center
07:12AM 43.0872 -75.2319 276° West 393 452 24,000 1,150 Climbing Boston Center
07:13AM 43.1000 -75.3861 277° West 409 471 25,200 1,200 Climbing Boston Center
07:14AM 43.1125 -75.5489 276° West 419 482 26,400 1,100 Climbing Boston Center
07:15AM 43.1247 -75.7061 276° West 424 488 27,400 1,000 Climbing Boston Center
07:16AM 43.1386 -75.8719 277° West 424 488 28,400 1,000 Climbing Boston Center
07:17AM 43.1503 -76.0378 276° West 430 495 29,400 832 Climbing Boston Center
07:19AM 43.1600 -76.3478 273° West 426 490 30,800 763 Climbing Cleveland Center
07:20AM 43.1619 -76.5183 271° West 440 506 31,600 800 Climbing Cleveland Center
07:21AM 43.1617 -76.6894 270° West 447 514 32,400 850 Climbing Cleveland Center
07:22AM 43.1589 -76.8603 269° West 452 520 33,300 950 Climbing Cleveland Center
07:23AM 43.1586 -77.0511 270° West 459 528 34,300 900 Climbing Cleveland Center
07:24AM 43.1575 -77.2219 270° West 459 528 35,100 900 Climbing Cleveland Center
07:25AM 43.1581 -77.3900 270° West 459 528 36,100 1,000 Climbing Cleveland Center
07:26AM 43.1564 -77.5578 269° West 459 528 37,100 800 Climbing Cleveland Center
07:27AM 43.1522 -77.7231 268° West 453 521 37,700 450 Climbing Cleveland Center
07:28AM 43.1519 -77.8853 270° West 441 507 38,000 150 Climbing Cleveland Center
07:29AM 43.1494 -78.0564 269° West 441 507 38,000  Level Cleveland Center
07:30AM 43.1469 -78.2272 269° West 446 513 38,000  Level Cleveland Center
07:31AM 43.1419 -78.4008 268° West 452 520 38,000  Level Cleveland Center
07:32AM 43.1367 -78.5747 268° West 459 528 38,000  Level Cleveland Center
07:33AM 43.1336 -78.7511 269° West 459 528 38,000  Level Cleveland Center
07:34AM 43.1297 -78.9247 268° West 459 528 38,000  Level Cleveland Center
07:35AM 43.1217 -79.0986 266° West 459 528 38,000  Level Cleveland Center
07:36AM 43.1000 -79.3167 262° West 460 529 38,000  Level Toronto Center
07:37AM 43.1000 -79.5000 270° West 460 529 38,000  Level Toronto Center
07:38AM 43.0833 -79.6833 263° West 460 529 38,000  Level Toronto Center
07:39AM 43.0833 -79.8333 270° West 450 518 38,000  Level Toronto Center
07:40AM 43.0833 -80.0167 270° West 440 506 38,000  Level Toronto Center
07:41AM 43.0667 -80.1833 262° West 440 506 38,000  Level Toronto Center
07:42AM 43.0667 -80.3333 270° West 440 506 38,000  Level Toronto Center
07:43AM 43.0667 -80.5167 270° West 440 506 38,000  Level Toronto Center
07:44AM 43.0500 -80.6833 262° West 440 506 38,000  Level Toronto Center
07:45AM 43.0333 -80.8500 262° West 440 506 38,000  Level Toronto Center
07:46AM 43.0167 -81.0167 262° West 440 506 38,000  Level Toronto Center
07:47AM 43.0167 -81.1833 270° West 440 506 38,000  Level Toronto Center
07:48AM 43.0167 -81.3500 270° West 440 506 38,000  Level Toronto Center
07:49AM 43.0167 -81.5333 270° West 430 495 38,000  Level Toronto Center
07:50AM 43.0167 -81.6833 270° West 440 506 38,000  Level Toronto Center
07:51AM 43.0167 -81.8500 270° West 430 495 38,000  Level Toronto Center
07:52AM 43.0000 -82.0333 263° West 430 495 38,000  Level Toronto Center
07:53AM 43.0000 -82.1833 270° West 440 506 38,000  Level Toronto Center
07:54AM 43.0000 -82.3500 270° West 440 506 38,000  Level Toronto Center
07:55AM 43.0000 -82.5333 270° West 450 518 38,000  Level Toronto Center
07:56AM 42.9833 -82.6833 261° West 440 506 38,000  Level Toronto Center
07:57AM 42.9833 -82.8500 270° West 440 506 38,000  Level Toronto Center
07:58AM 42.9833 -83.0000 270° West 440 506 38,000  Level Toronto Center
07:59AM 42.9833 -83.1833 270° West 430 495 38,000  Level Toronto Center
08:00AM 42.9667 -83.3500 262° West 430 495 38,000  Level Toronto Center
08:01AM 42.9667 -83.5000 270° West 430 495 38,000  Level Toronto Center
08:02AM 42.9667 -83.6667 270° West 430 495 38,000  Level Toronto Center
08:03AM 42.9500 -83.8167 261° West 430 495 38,000  Level Toronto Center
08:04AM 42.9481 -83.9372 269° West 433 498 38,000  Level Chicago Center
08:04AM 42.9381 -84.0292 262° West 443 510 38,000 -522 Level Cleveland Center
08:05AM 42.9228 -84.1900 263° West 443 510 37,200 -1,253 Descending Cleveland Center
08:06AM 42.9172 -84.2608 264° West 431 496 36,100 -2,129 Descending Chicago Center
08:07AM 42.9003 -84.4203 262° West 427 491 33,900 -1,935 Descending Chicago Center
08:08AM 42.8850 -84.5883 263° West 443 510 32,100 -919 Descending Chicago Center
08:09AM 42.8672 -84.7556 262° West 448 516 32,000 -48 Descending Chicago Center
08:10AM 42.8461 -84.9547 262° West 444 511 32,000 -98 Level Chicago Center
08:11AM 42.8283 -85.1214 262° West 445 512 31,800 -780 Descending Chicago Center
08:12AM 42.8094 -85.2869 261° West 442 509 30,400 -1,355 Descending Chicago Center
08:13AM 42.7917 -85.4531 262° West 443 510 29,000 -1,355 Descending Chicago Center
08:14AM 42.7647 -85.6147 257° West 438 504 27,600 -1,548 Descending Chicago Center
08:15AM 42.7367 -85.7764 257° West 437 503 25,800 -1,790 Descending Chicago Center
08:16AM 42.7072 -85.9339 256° West 429 494 23,900 -1,839 Descending Chicago Center
08:17AM 42.6789 -86.0917 256° West 426 490 22,000 -1,887 Descending Chicago Center
08:18AM 42.6444 -86.2767 256° West 421 484 20,000 -968 Descending Chicago Center
08:19AM 42.6156 -86.4275 255° West 414 476 20,000 -968 Level Chicago Center
08:20AM 42.5881 -86.5781 256° West 411 473 18,000 -2,081 Descending Chicago Center
08:21AM 42.5622 -86.7222 256° West 396 456 15,700 -2,129 Descending Chicago Center
08:23AM 42.5264 -86.8522 250° West 374 430 13,600 -1,984 Descending Chicago Center
08:24AM 42.4939 -86.9758 250° West 354 407 11,600 -1,742 Descending Chicago Center
08:25AM 42.4592 -87.0950 248° West 342 394 10,000 -774 Descending Chicago Center
08:26AM 42.4203 -87.2372 250° West 336 387 10,000 -484 Level Chicago Center
08:27AM 42.3944 -87.3339 250° West 280 322 9,000 -532 Descending Chicago Center
08:28AM 42.3658 -87.4358 249° West 276 318 8,900 -581 Descending Chicago Center
08:29AM 42.3058 -87.4886 213° Southwest 268 308 7,800 -1,065 Descending Chicago Center
08:30AM 42.2375 -87.5239 201° Southwest 265 305 6,700 -1,016 Descending Chicago Center
08:31AM 42.1631 -87.5447 192° South 272 313 5,700 -871 Descending Chicago Center
08:32AM 42.0892 -87.5722 195° South 229 264 4,900 -823 Descending Chicago Center
08:33AM 42.0600 -87.6375 239° Southwest 209 241 4,000 -823 Descending Chicago Center
08:34AM 42.0289 -87.7008 237° Southwest 204 235 3,200 -774 Descending Chicago Center
08:35AM 42.0075 -87.7569 243° Southwest 176 203 2,400 -629 Descending Chicago Center
08:36AM 42.0017 -87.8139 262° West 159 183 1,900 -484 Descending Chicago Center
08:37AM 42.0028 -87.8664 272° West 150 173 1,400 -484 Descending Chicago Center
08:39AM 41.9817 -87.9067 217° Southwest  Level Estimated

Login

Don't have an account? Register now (free) for customized features, flight alerts, and more!